| time (UTC) | temp F | wind direction | speed MPH | gust MPH | rain 1hr in | rain 24hr in | rain mn in | humidity % | barometer mb |
| 20260504082002 | 51 | 203 | 3.0 | 7.0 | 0.00 | 0.09 | 0.00 | 76 | 988.5 |
| 20260504081502 | 51 | 200 | 4.0 | 8.0 | 0.00 | 0.09 | 0.00 | 76 | 988.5 |
| 20260504081001 | 51 | 186 | 4.0 | 7.0 | 0.00 | 0.09 | 0.00 | 76 | 988.6 |
| 20260504080502 | 51 | 188 | 3.0 | 9.0 | 0.00 | 0.09 | 0.00 | 76 | 988.6 |
| 20260504050502 | 51 | 211 | 5.0 | 9.0 | 0.00 | 0.09 | 0.00 | 72 | 989.8 |
| 20260504050002 | 50 | 187 | 6.0 | 11.0 | 0.00 | 0.09 | 0.00 | 75 | 989.8 |
| 20260504045502 | 49 | 188 | 5.0 | 9.0 | 0.00 | 0.09 | 0.00 | 77 | 989.8 |
| 20260504045002 | 49 | 190 | 4.0 | 10.0 | 0.00 | 0.09 | 0.00 | 78 | 989.8 |
| 20260504044502 | 49 | 175 | 4.0 | 7.0 | 0.00 | 0.09 | 0.00 | 78 | 989.9 |
| 20260504044001 | 48 | 186 | 4.0 | 7.0 | 0.00 | 0.09 | 0.00 | 79 | 989.9 |
| 20260504043503 | 48 | 179 | 4.0 | 7.0 | 0.00 | 0.09 | 0.00 | 79 | 990.0 |
| 20260504043001 | 48 | 183 | 4.0 | 6.0 | 0.00 | 0.09 | 0.00 | 80 | 990.0 |
| 20260504042502 | 48 | 187 | 4.0 | 6.0 | 0.00 | 0.09 | 0.00 | 81 | 990.1 |
| 20260504042002 | 48 | 199 | 4.0 | 6.0 | 0.00 | 0.09 | 0.00 | 81 | 990.1 |
| 20260504041502 | 48 | 193 | 4.0 | 7.0 | 0.00 | 0.09 | 0.00 | 81 | 990.1 |
| 20260504041002 | 48 | 185 | 4.0 | 6.0 | 0.00 | 0.09 | 0.00 | 81 | 990.2 |
| 20260504040502 | 48 | 198 | 4.0 | 7.0 | 0.00 | 0.09 | 0.00 | 81 | 990.1 |
| 20260504040001 | 48 | 183 | 4.0 | 6.0 | 0.00 | 0.09 | 0.00 | 81 | 990.1 |
| 20260504035502 | 49 | 225 | 3.0 | 4.0 | 0.00 | 0.09 | 0.00 | 80 | 990.2 |
| 20260504035002 | 49 | 225 | 4.0 | 5.0 | 0.00 | 0.09 | 0.00 | 81 | 990.3 |
| 20260504034502 | 49 | 225 | 4.0 | 5.0 | 0.00 | 0.09 | 0.00 | 80 | 990.3 |
| 20260504034002 | 49 | 225 | 3.0 | 5.0 | 0.00 | 0.09 | 0.00 | 79 | 990.3 |
| 20260504033502 | 49 | 216 | 4.0 | 6.0 | 0.00 | 0.09 | 0.00 | 79 | 990.4 |
| 20260504033002 | 50 | 189 | 4.0 | 6.0 | 0.00 | 0.09 | 0.00 | 79 | 990.4 |
| 20260504032502 | 50 | 184 | 5.0 | 6.0 | 0.00 | 0.09 | 0.00 | 78 | 990.4 |
| 20260504032002 | 50 | 183 | 5.0 | 6.0 | 0.00 | 0.09 | 0.00 | 77 | 990.4 |
| 20260504031502 | 50 | 182 | 5.0 | 7.0 | 0.00 | 0.09 | 0.00 | 77 | 990.4 |
| 20260504031001 | 50 | 180 | 5.0 | 7.0 | 0.00 | 0.09 | 0.00 | 77 | 990.4 |
| 20260504030502 | 51 | 180 | 5.0 | 6.0 | 0.00 | 0.09 | 0.00 | 76 | 990.3 |
| 20260504030002 | 51 | 181 | 5.0 | 6.0 | 0.00 | 0.09 | 0.00 | 76 | 990.3 |
| 20260504025502 | 51 | 181 | 5.0 | 7.0 | 0.00 | 0.09 | 0.00 | 75 | 990.2 |
| 20260504025002 | 51 | 183 | 5.0 | 6.0 | 0.00 | 0.09 | 0.00 | 74 | 990.1 |
| 20260504024502 | 52 | 181 | 5.0 | 6.0 | 0.00 | 0.09 | 0.00 | 74 | 990.1 |
| 20260504024002 | 52 | 182 | 5.0 | 6.0 | 0.00 | 0.09 | 0.00 | 73 | 990.1 |
| 20260504023502 | 52 | 180 | 5.0 | 7.0 | 0.00 | 0.09 | 0.00 | 73 | 990.1 |
| 20260504023002 | 52 | 181 | 5.0 | 6.0 | 0.00 | 0.09 | 0.00 | 73 | 990.1 |
| 20260504022502 | 53 | 180 | 5.0 | 6.0 | 0.00 | 0.09 | 0.00 | 72 | 989.9 |
| 20260504022002 | 53 | 181 | 5.0 | 6.0 | 0.00 | 0.09 | 0.00 | 72 | 989.8 |
| 20260504021502 | 53 | 182 | 5.0 | 6.0 | 0.00 | 0.09 | 0.00 | 73 | 989.7 |
| 20260504021002 | 53 | 183 | 5.0 | 7.0 | 0.00 | 0.09 | 0.00 | 72 | 989.6 |
| 20260504020502 | 53 | 179 | 5.0 | 7.0 | 0.00 | 0.09 | 0.00 | 71 | 989.7 |
| 20260504020002 | 53 | 181 | 5.0 | 7.0 | 0.00 | 0.09 | 0.00 | 70 | 989.7 |
| 20260504015502 | 53 | 182 | 5.0 | 7.0 | 0.00 | 0.09 | 0.00 | 69 | 989.8 |
| 20260504015001 | 53 | 186 | 6.0 | 7.0 | 0.00 | 0.08 | 0.00 | 69 | 989.6 |
| 20260504014503 | 54 | 169 | 5.0 | 7.0 | 0.00 | 0.07 | 0.00 | 68 | 989.6 |
| 20260504014002 | 54 | 170 | 4.0 | 6.0 | 0.00 | 0.05 | 0.00 | 68 | 989.7 |
| 20260504013502 | 54 | 179 | 5.0 | 7.0 | 0.00 | 0.03 | 0.00 | 67 | 989.8 |
| 20260504013003 | 55 | 173 | 5.0 | 8.0 | 0.00 | 0.03 | 0.00 | 66 | 989.7 |
| 20260504012501 | 55 | 176 | 5.0 | 7.0 | 0.00 | 0.00 | 0.00 | 65 | 989.7 |
| 20260504012002 | 56 | 170 | 5.0 | 6.0 | 0.00 | 0.00 | 0.00 | 64 | 989.7 |
| 20260504011502 | 57 | 180 | 4.0 | 7.0 | 0.00 | 0.00 | 0.00 | 62 | 989.7 |
| 20260504011002 | 57 | 188 | 4.0 | 6.0 | 0.00 | 0.00 | 0.00 | 61 | 989.8 |
| 20260504010502 | 58 | 182 | 5.0 | 6.0 | 0.00 | 0.00 | 0.00 | 59 | 989.7 |
| 20260504010002 | 58 | 180 | 5.0 | 6.0 | 0.00 | 0.00 | 0.00 | 58 | 989.7 |
| 20260504005502 | 59 | 176 | 5.0 | 6.0 | 0.00 | 0.00 | 0.00 | 57 | 989.8 |
| 20260504005002 | 59 | 180 | 5.0 | 8.0 | 0.00 | 0.00 | 0.00 | 56 | 989.9 |
| 20260504004502 | 60 | 162 | 6.0 | 8.0 | 0.00 | 0.00 | 0.00 | 55 | 990.0 |
| 20260504004002 | 61 | 173 | 4.0 | 8.0 | 0.00 | 0.00 | 0.00 | 54 | 990.1 |
| 20260504003501 | 61 | 163 | 5.0 | 8.0 | 0.00 | 0.00 | 0.00 | 54 | 990.1 |
| 20260504003002 | 62 | 160 | 4.0 | 7.0 | 0.00 | 0.00 | 0.00 | 51 | 990.2 |
| 20260504002502 | 63 | 190 | 4.0 | 8.0 | 0.00 | 0.00 | 0.00 | 50 | 990.2 |
| 20260504002002 | 63 | 168 | 4.0 | 7.0 | 0.00 | 0.00 | 0.00 | 49 | 990.3 |
| 20260504001502 | 64 | 163 | 3.0 | 6.0 | 0.00 | 0.00 | 0.00 | 48 | 990.3 |
| 20260504001002 | 64 | 189 | 4.0 | 8.0 | 0.00 | 0.00 | 0.00 | 44 | 990.3 |
| 20260504000502 | 64 | 212 | 3.0 | 8.0 | 0.00 | 0.00 | 0.00 | 47 | 990.2 |
| 20260504000002 | 64 | 211 | 3.0 | 8.0 | 0.00 | 0.00 | 0.00 | 46 | 990.3 |
| 20260503235502 | 64 | 207 | 4.0 | 7.0 | 0.00 | 0.00 | 0.00 | 46 | 990.3 |
| 20260503235001 | 65 | 180 | 5.0 | 7.0 | 0.00 | 0.00 | 0.00 | 47 | 990.4 |
| 20260503234502 | 66 | 179 | 6.0 | 10.0 | 0.00 | 0.00 | 0.00 | 48 | 990.5 |
| 20260503234002 | 67 | 202 | 5.0 | 9.0 | 0.00 | 0.00 | 0.00 | 41 | 990.6 |
| 20260503233502 | 67 | 221 | 5.0 | 13.0 | 0.00 | 0.00 | 0.00 | 39 | 990.7 |
| 20260503233001 | 68 | 209 | 4.0 | 9.0 | 0.00 | 0.00 | 0.00 | 39 | 991.0 |
| 20260503232502 | 68 | 189 | 7.0 | 19.0 | 0.00 | 0.00 | 0.00 | 41 | 991.1 |
| 20260503232002 | 68 | 193 | 4.0 | 9.0 | 0.00 | 0.00 | 0.00 | 41 | 991.1 |
| 20260503231502 | 68 | 307 | 4.0 | 8.0 | 0.00 | 0.00 | 0.00 | 39 | 991.1 |
| 20260503231002 | 68 | 316 | 3.0 | 7.0 | 0.00 | 0.00 | 0.00 | 38 | 991.2 |
| 20260503230502 | 68 | 276 | 3.0 | 8.0 | 0.00 | 0.00 | 0.00 | 39 | 991.2 |
| 20260503230002 | 69 | 255 | 5.0 | 12.0 | 0.00 | 0.00 | 0.00 | 38 | 991.3 |
| 20260503225501 | 69 | 221 | 4.0 | 11.0 | 0.00 | 0.00 | 0.00 | 38 | 991.4 |
| 20260503225002 | 69 | 329 | 4.0 | 9.0 | 0.00 | 0.00 | 0.00 | 38 | 991.4 |
| 20260503224502 | 69 | 281 | 4.0 | 13.0 | 0.00 | 0.00 | 0.00 | 38 | 991.4 |
| 20260503224002 | 68 | 258 | 3.0 | 9.0 | 0.00 | 0.00 | 0.00 | 38 | 991.4 |
| 20260503223502 | 68 | 239 | 6.0 | 14.0 | 0.00 | 0.00 | 0.00 | 37 | 991.4 |
| 20260503223002 | 69 | 225 | 6.0 | 13.0 | 0.00 | 0.00 | 0.00 | 37 | 991.5 |
| 20260503222502 | 69 | 292 | 5.0 | 13.0 | 0.00 | 0.00 | 0.00 | 38 | 991.6 |
| 20260503222002 | 69 | 286 | 6.0 | 12.0 | 0.00 | 0.00 | 0.00 | 37 | 991.6 |
| 20260503221502 | 69 | 257 | 6.0 | 13.0 | 0.00 | 0.00 | 0.00 | 38 | 991.7 |
| 20260503221002 | 69 | 212 | 6.0 | 16.0 | 0.00 | 0.00 | 0.00 | 38 | 991.8 |
| 20260503220502 | 69 | 190 | 5.0 | 11.0 | 0.00 | 0.00 | 0.00 | 40 | 991.9 |
| 20260503220002 | 69 | 211 | 8.0 | 14.0 | 0.00 | 0.00 | 0.00 | 38 | 991.9 |
| 20260503215503 | 69 | 211 | 6.0 | 12.0 | 0.00 | 0.00 | 0.00 | 39 | 992.0 |
| 20260503215003 | 69 | 311 | 6.0 | 18.0 | 0.00 | 0.00 | 0.00 | 37 | 992.1 |
| 20260503214501 | 69 | 204 | 7.0 | 13.0 | 0.00 | 0.00 | 0.00 | 37 | 992.2 |
| 20260503214003 | 69 | 243 | 6.0 | 13.0 | 0.00 | 0.00 | 0.00 | 37 | 992.3 |
| 20260503213502 | 69 | 235 | 5.0 | 10.0 | 0.00 | 0.00 | 0.00 | 37 | 992.4 |
| 20260503213002 | 69 | 213 | 7.0 | 17.0 | 0.00 | 0.00 | 0.00 | 37 | 992.5 |
| 20260503212501 | 69 | 262 | 7.0 | 18.0 | 0.00 | 0.00 | 0.00 | 37 | 992.6 |
| 20260503212002 | 69 | 193 | 8.0 | 19.0 | 0.00 | 0.00 | 0.00 | 36 | 992.7 |
| 20260503211502 | 69 | 279 | 5.0 | 11.0 | 0.00 | 0.00 | 0.00 | 36 | 992.8 |
| 20260503211002 | 69 | 224 | 6.0 | 16.0 | 0.00 | 0.00 | 0.00 | 38 | 993.0 |
| 20260503210502 | 69 | 195 | 6.0 | 12.0 | 0.00 | 0.00 | 0.00 | 37 | 993.0 |
| 20260503210002 | 69 | 217 | 7.0 | 13.0 | 0.00 | 0.00 | 0.00 | 38 | 993.1 |
| 20260503205506 | 69 | 202 | 7.0 | 16.0 | 0.00 | 0.00 | 0.00 | 37 | 993.2 |
| 20260503205003 | 69 | 177 | 7.0 | 12.0 | 0.00 | 0.00 | 0.00 | 38 | 993.2 |
| 20260503204501 | 69 | 327 | 5.0 | 11.0 | 0.00 | 0.00 | 0.00 | 37 | 993.3 |
| 20260503204002 | 69 | 220 | 6.0 | 15.0 | 0.00 | 0.00 | 0.00 | 38 | 993.3 |
| 20260503203502 | 69 | 196 | 8.0 | 15.0 | 0.00 | 0.00 | 0.00 | 37 | 993.4 |
| 20260503203002 | 69 | 175 | 6.0 | 16.0 | 0.00 | 0.00 | 0.00 | 37 | 993.6 |
| 20260503202502 | 69 | 191 | 7.0 | 20.0 | 0.00 | 0.00 | 0.00 | 38 | 993.7 |
| 20260503202002 | 68 | 248 | 5.0 | 10.0 | 0.00 | 0.00 | 0.00 | 39 | 993.8 |
| 20260503201501 | 68 | 197 | 7.0 | 15.0 | 0.00 | 0.00 | 0.00 | 37 | 993.9 |
| 20260503201002 | 68 | 199 | 8.0 | 15.0 | 0.00 | 0.00 | 0.00 | 36 | 994.0 |
| 20260503200502 | 68 | 319 | 6.0 | 13.0 | 0.00 | 0.00 | 0.00 | 37 | 994.1 |
| 20260503200002 | 68 | 218 | 7.0 | 12.0 | 0.00 | 0.00 | 0.00 | 38 | 994.3 |
| 20260503195502 | 68 | 190 | 5.0 | 12.0 | 0.00 | 0.00 | 0.00 | 38 | 994.4 |
| 20260503195002 | 67 | 188 | 6.0 | 10.0 | 0.00 | 0.00 | 0.00 | 38 | 994.4 |
| 20260503194502 | 67 | 192 | 7.0 | 17.0 | 0.00 | 0.00 | 0.00 | 37 | 994.4 |
| 20260503194002 | 68 | 224 | 8.0 | 18.0 | 0.00 | 0.00 | 0.00 | 39 | 994.6 |
| 20260503193502 | 67 | 217 | 6.0 | 15.0 | 0.00 | 0.00 | 0.00 | 39 | 994.7 |
| 20260503193002 | 67 | 201 | 7.0 | 14.0 | 0.00 | 0.00 | 0.00 | 38 | 994.8 |
| 20260503192501 | 67 | 270 | 5.0 | 12.0 | 0.00 | 0.00 | 0.00 | 39 | 994.8 |
| 20260503192002 | 67 | 233 | 7.0 | 18.0 | 0.00 | 0.00 | 0.00 | 38 | 994.9 |
| 20260503191501 | 67 | 220 | 7.0 | 16.0 | 0.00 | 0.00 | 0.00 | 38 | 995.0 |
| 20260503191002 | 66 | 200 | 6.0 | 12.0 | 0.00 | 0.00 | 0.00 | 39 | 995.0 |
| 20260503190502 | 66 | 121 | 5.0 | 10.0 | 0.00 | 0.00 | 0.00 | 39 | 995.0 |
| 20260503190002 | 66 | 241 | 9.0 | 14.0 | 0.00 | 0.00 | 0.00 | 38 | 995.1 |
| 20260503185502 | 66 | 220 | 7.0 | 17.0 | 0.00 | 0.00 | 0.00 | 39 | 995.2 |
| 20260503185002 | 66 | 316 | 6.0 | 13.0 | 0.00 | 0.00 | 0.00 | 40 | 995.2 |
| 20260503184502 | 66 | 192 | 7.0 | 14.0 | 0.00 | 0.00 | 0.00 | 39 | 995.3 |
| 20260503184003 | 66 | 181 | 7.0 | 16.0 | 0.00 | 0.00 | 0.00 | 41 | 995.3 |
| 20260503183502 | 65 | 189 | 6.0 | 12.0 | 0.00 | 0.00 | 0.00 | 41 | 995.4 |
| 20260503183001 | 65 | 191 | 8.0 | 20.0 | 0.00 | 0.00 | 0.00 | 39 | 995.5 |
| 20260503182502 | 65 | 273 | 5.0 | 16.0 | 0.00 | 0.00 | 0.00 | 39 | 995.6 |
| 20260503182002 | 65 | 277 | 6.0 | 14.0 | 0.00 | 0.00 | 0.00 | 39 | 995.7 |
| 20260503181502 | 65 | 288 | 5.0 | 13.0 | 0.00 | 0.00 | 0.00 | 40 | 995.8 |
| 20260503181002 | 65 | 198 | 7.0 | 20.0 | 0.00 | 0.00 | 0.00 | 38 | 995.8 |
| 20260503180502 | 65 | 312 | 5.0 | 11.0 | 0.00 | 0.00 | 0.00 | 40 | 995.9 |
| 20260503180002 | 65 | 194 | 7.0 | 14.0 | 0.00 | 0.00 | 0.00 | 40 | 995.9 |
| 20260503175501 | 65 | 178 | 6.0 | 15.0 | 0.00 | 0.00 | 0.00 | 43 | 996.0 |
| 20260503175002 | 64 | 200 | 8.0 | 16.0 | 0.00 | 0.00 | 0.00 | 39 | 996.0 |
| 20260503174502 | 64 | 197 | 8.0 | 19.0 | 0.00 | 0.00 | 0.00 | 40 | 996.2 |
| 20260503174002 | 64 | 264 | 7.0 | 18.0 | 0.00 | 0.00 | 0.00 | 41 | 996.2 |
| 20260503173502 | 64 | 214 | 5.0 | 14.0 | 0.00 | 0.00 | 0.00 | 41 | 996.4 |
| 20260503173001 | 63 | 285 | 4.0 | 10.0 | 0.00 | 0.00 | 0.00 | 41 | 996.4 |
| 20260503172502 | 63 | 241 | 7.0 | 15.0 | 0.00 | 0.00 | 0.00 | 41 | 996.4 |
| 20260503172002 | 63 | 310 | 5.0 | 13.0 | 0.00 | 0.00 | 0.00 | 40 | 996.4 |
| 20260503171502 | 63 | 208 | 8.0 | 16.0 | 0.00 | 0.00 | 0.00 | 39 | 996.5 |
| 20260503171002 | 63 | 263 | 5.0 | 16.0 | 0.00 | 0.00 | 0.00 | 40 | 996.6 |
| 20260503170502 | 63 | 207 | 6.0 | 14.0 | 0.00 | 0.00 | 0.00 | 40 | 996.7 |
| 20260503151002 | 59 | 263 | 6.0 | 10.0 | 0.00 | 0.01 | 0.00 | 44 | 997.4 |
| 20260503150502 | 59 | 286 | 6.0 | 14.0 | 0.00 | 0.01 | 0.00 | 45 | 997.5 |
| 20260503131002 | 44 | 199 | 2.0 | 5.0 | 0.00 | 0.02 | 0.00 | 96 | 997.0 |
| 20260503130502 | 43 | 225 | 2.0 | 4.0 | 0.00 | 0.02 | 0.00 | 96 | 997.0 |
| 20260503110502 | 35 | 200 | 2.0 | 4.0 | 0.00 | 0.02 | 0.00 | 96 | 995.3 |